User: anonymous   Login
Location: Unspecified
(42.0334°N, 93.6656°W)
Time: 20:42:11
(UTC-05:00)
Language:

Iridium 63 - Orbit

View from above orbital plane
View from above orbital plane
View from above satellite
View from above satellite

Ground track
Ground track

The orbit data is extracted from the following two-line orbital elements,

1 25286U 98021B   17177.22613708 +.00000120 +00000-0 +35613-4 0  9990
2 25286 086.3999 220.5312 0002483 088.2490 338.5519 14.34667582006064
Epoch (UTC): 26 June 2017 05:25:38
Eccentricity: 0.0002483
inclination: 86.3999°
perigee height: 774 km
apogee height: 778 km
right ascension of ascending node: 220.5312°
argument of perigee: 88.2490°
revolutions per day: 14.34667582
mean anomaly at epoch: 338.5519°
orbit number at epoch: 606

The dashed part of the orbit path shows where the satellite is in the earth's shadow,  

DLR